Terminal Aerodrome Forecast
Issued by NWS

Home | Current Version | Previous Version | Graphics & Text | Print | Product List | Glossary On
Versions: 1 2 3 4 5 6 7 8 9 10 11 12 13 14 15 16 17 18 19 20 21 22
000
FTUS43 KMPX 152021 AAA
TAFAXN
TAF AMD
KAXN 152021Z 1520/1618 15006KT P6SM OVC015
     FM152200 15006KT 3SM -SN OVC015
     FM160300 13006KT P6SM OVC008=

USA.gov is the U.S. government's official web portal to all federal, state and local government web resources and services.